Meteo pe oră la Almere

Astăzi, 18 Ianuarie, Luni

Timp Temperatura Precipitaţii Vânt Presiune Umiditate
00:00 +1°C° 0 mm 3 m/s 767 mmHg 93%
01:00 +1°C° 0 mm 3 m/s 766 mmHg 93%
02:00 0°C° 0 mm 4 m/s 766 mmHg 94%
03:00 0°C° 0 mm 4 m/s 766 mmHg 94%
04:00 +1°C° 0 mm 4 m/s 766 mmHg 94%
05:00 +1°C° 0 mm 4 m/s 766 mmHg 93%
06:00 +3°C° 0 mm 4 m/s 765 mmHg 93%
07:00 +3°C° 0 mm 4 m/s 765 mmHg 92%
08:00 +2°C° 0 mm 5 m/s 765 mmHg 91%
09:00 +2°C° 0 mm 5 m/s 765 mmHg 90%
10:00 +3°C° 0 mm 5 m/s 765 mmHg 87%
11:00 +3°C° 0 mm 6 m/s 765 mmHg 84%
12:00 +4°C° 0 mm 6 m/s 764 mmHg 81%
13:00 +4°C° 0.1 mm 6 m/s 764 mmHg 82%
14:00 +4°C° 0.1 mm 6 m/s 763 mmHg 82%
15:00 +4°C° 0.1 mm 6 m/s 763 mmHg 82%
16:00 +4°C° 0.1 mm 6 m/s 763 mmHg 83%
17:00 +5°C° 0.1 mm 5 m/s 762 mmHg 83%
18:00 +3°C° 0.1 mm 5 m/s 762 mmHg 84%
19:00 +3°C° 0.1 mm 5 m/s 762 mmHg 85%
20:00 +3°C° 0.1 mm 5 m/s 761 mmHg 86%
21:00 +3°C° 0.1 mm 5 m/s 761 mmHg 87%
22:00 +3°C° 0.4 mm 6 m/s 760 mmHg 87%
23:00 +3°C° 0.4 mm 6 m/s 760 mmHg 88%

Mâine, 19 Ianuarie, Marţi

Timp Temperatura Precipitaţii Vânt Presiune Umiditate
00:00 +3°C° 0.4 mm 7 m/s 759 mmHg 89%
01:00 +3°C° 0.8 mm 7 m/s 758 mmHg 89%
02:00 +2°C° 0.8 mm 8 m/s 757 mmHg 90%
03:00 +2°C° 0.8 mm 8 m/s 755 mmHg 91%
04:00 +4°C° 1.6 mm 8 m/s 754 mmHg 91%
05:00 +4°C° 1.6 mm 8 m/s 753 mmHg 92%
06:00 +5°C° 1.6 mm 9 m/s 752 mmHg 92%
07:00 +6°C° 1.7 mm 8 m/s 752 mmHg 92%
08:00 +7°C° 1.7 mm 8 m/s 751 mmHg 91%
09:00 +9°C° 1.7 mm 8 m/s 750 mmHg 91%
10:00 +8°C° 0.6 mm 9 m/s 750 mmHg 88%
11:00 +8°C° 0.6 mm 10 m/s 751 mmHg 85%
12:00 +9°C° 0.6 mm 11 m/s 751 mmHg 82%
13:00 +8°C° 0 mm 10 m/s 751 mmHg 82%
14:00 +8°C° 0 mm 10 m/s 751 mmHg 81%
15:00 +8°C° 0 mm 9 m/s 751 mmHg 80%
16:00 +8°C° 0.3 mm 10 m/s 750 mmHg 82%
17:00 +8°C° 0.3 mm 10 m/s 750 mmHg 84%
18:00 +7°C° 0.3 mm 10 m/s 750 mmHg 86%
19:00 +8°C° 0.3 mm 10 m/s 750 mmHg 84%
20:00 +8°C° 0.3 mm 11 m/s 749 mmHg 82%
21:00 +8°C° 0.3 mm 11 m/s 749 mmHg 80%
22:00 +7°C° 0.1 mm 11 m/s 749 mmHg 80%
23:00 +7°C° 0.1 mm 11 m/s 749 mmHg 80%

Poimâine, 20 Ianuarie, Miercuri

Timp Temperatura Precipitaţii Vânt Presiune Umiditate
00:00 +7°C° 0.1 mm 10 m/s 749 mmHg 81%
01:00 +7°C° 0.1 mm 10 m/s 748 mmHg 81%
02:00 +7°C° 0.1 mm 10 m/s 748 mmHg 81%
03:00 +7°C° 0.1 mm 10 m/s 747 mmHg 82%
04:00 +7°C° 0.3 mm 10 m/s 747 mmHg 82%
05:00 +7°C° 0.3 mm 10 m/s 746 mmHg 82%
06:00 +7°C° 0.3 mm 10 m/s 746 mmHg 82%
07:00 +7°C° 0.1 mm 10 m/s 746 mmHg 80%
08:00 +6°C° 0.1 mm 10 m/s 746 mmHg 78%
09:00 +6°C° 0.1 mm 10 m/s 746 mmHg 76%
10:00 +6°C° 0.1 mm 9 m/s 746 mmHg 77%
11:00 +6°C° 0.1 mm 9 m/s 746 mmHg 78%
12:00 +6°C° 0.1 mm 9 m/s 746 mmHg 78%
13:00 +6°C° 0 mm 8 m/s 746 mmHg 76%
14:00 +6°C° 0 mm 8 m/s 745 mmHg 74%
15:00 +6°C° 0 mm 7 m/s 745 mmHg 73%
16:00 +5°C° 0 mm 7 m/s 745 mmHg 71%
17:00 +5°C° 0 mm 7 m/s 744 mmHg 70%
18:00 +5°C° 0 mm 7 m/s 744 mmHg 69%
19:00 +5°C° 0 mm 8 m/s 744 mmHg 70%
20:00 +6°C° 0 mm 8 m/s 743 mmHg 72%
21:00 +6°C° 0 mm 8 m/s 742 mmHg 73%
22:00 +6°C° 0 mm 8 m/s 742 mmHg 75%
23:00 +6°C° 0 mm 8 m/s 741 mmHg 76%

21 Ianuarie, Joi

Timp Temperatura Precipitaţii Vânt Presiune Umiditate
00:00 +6°C° 0 mm 9 m/s 741 mmHg 78%
01:00 +6°C° 0 mm 9 m/s 740 mmHg 77%
02:00 +7°C° 0 mm 10 m/s 738 mmHg 76%
03:00 +7°C° 0 mm 10 m/s 737 mmHg 75%
04:00 +7°C° 0.7 mm 11 m/s 737 mmHg 76%
05:00 +6°C° 0.7 mm 11 m/s 737 mmHg 77%
06:00 +5°C° 0.7 mm 12 m/s 737 mmHg 79%
07:00 +5°C° 0.2 mm 10 m/s 738 mmHg 75%
08:00 +5°C° 0.2 mm 9 m/s 739 mmHg 72%
09:00 +4°C° 0.2 mm 8 m/s 740 mmHg 69%
10:00 +5°C° 0 mm 9 m/s 740 mmHg 68%
11:00 +6°C° 0 mm 9 m/s 740 mmHg 67%
12:00 +6°C° 0 mm 10 m/s 740 mmHg 66%
13:00 +6°C° 0.1 mm 10 m/s 740 mmHg 67%
14:00 +6°C° 0.1 mm 9 m/s 740 mmHg 68%
15:00 +5°C° 0.1 mm 9 m/s 740 mmHg 69%
16:00 +5°C° 0 mm 9 m/s 740 mmHg 69%
17:00 +5°C° 0 mm 9 m/s 740 mmHg 70%
18:00 +5°C° 0 mm 8 m/s 740 mmHg 71%
19:00 +4°C° 0 mm 8 m/s 740 mmHg 73%
20:00 +4°C° 0 mm 8 m/s 739 mmHg 75%
21:00 +4°C° 0 mm 8 m/s 739 mmHg 77%
22:00 +4°C° 0 mm 7 m/s 738 mmHg 78%
23:00 +4°C° 0 mm 7 m/s 738 mmHg 79%

22 Ianuarie, Vineri

Timp Temperatura Precipitaţii Vânt Presiune Umiditate
00:00 +4°C° 0 mm 7 m/s 737 mmHg 80%
01:00 +3°C° 0 mm 7 m/s 737 mmHg 81%
02:00 +3°C° 0 mm 7 m/s 737 mmHg 81%
03:00 +3°C° 0 mm 7 m/s 737 mmHg 81%
04:00 +3°C° 0 mm 7 m/s 738 mmHg 80%
05:00 +2°C° 0 mm 8 m/s 738 mmHg 78%
06:00 +2°C° 0 mm 8 m/s 738 mmHg 76%
07:00 +2°C° 0 mm 8 m/s 739 mmHg 75%
08:00 +2°C° 0 mm 8 m/s 739 mmHg 74%
09:00 +2°C° 0 mm 8 m/s 739 mmHg 73%
10:00 +4°C° 0 mm 8 m/s 739 mmHg 70%
11:00 +3°C° 0 mm 9 m/s 740 mmHg 67%
12:00 +5°C° 0 mm 9 m/s 740 mmHg 64%
13:00 +5°C° 0 mm 8 m/s 741 mmHg 64%
14:00 +5°C° 0 mm 8 m/s 741 mmHg 65%
15:00 +4°C° 0 mm 7 m/s 741 mmHg 65%
16:00 +4°C° 0 mm 7 m/s 742 mmHg 67%
17:00 +3°C° 0 mm 7 m/s 742 mmHg 70%
18:00 +3°C° 0 mm 6 m/s 742 mmHg 72%
19:00 +3°C° 0 mm 6 m/s 743 mmHg 74%
20:00 +2°C° 0 mm 6 m/s 743 mmHg 76%
21:00 +2°C° 0 mm 6 m/s 743 mmHg 79%
22:00 +2°C° 0 mm 6 m/s 743 mmHg 80%
23:00 +2°C° 0 mm 5 m/s 743 mmHg 82%

23 Ianuarie, Sâmbătă

Timp Temperatura Precipitaţii Vânt Presiune Umiditate
00:00 +2°C° 0 mm 5 m/s 743 mmHg 84%
01:00 +1°C° 0 mm 5 m/s 744 mmHg 85%
02:00 +1°C° 0 mm 5 m/s 744 mmHg 85%
03:00 +1°C° 0 mm 5 m/s 744 mmHg 86%
04:00 +1°C° 0 mm 5 m/s 744 mmHg 85%
05:00 +1°C° 0 mm 5 m/s 745 mmHg 84%
06:00 +1°C° 0 mm 5 m/s 745 mmHg 83%
07:00 +1°C° 0.1 mm 6 m/s 746 mmHg 83%
08:00 +1°C° 0.1 mm 6 m/s 746 mmHg 83%
09:00 +2°C° 0.1 mm 7 m/s 747 mmHg 83%
10:00 +2°C° 0.5 mm 6 m/s 748 mmHg 82%
11:00 +2°C° 0.5 mm 5 m/s 748 mmHg 80%
12:00 +3°C° 0.5 mm 5 m/s 749 mmHg 79%
13:00 +3°C° 0.1 mm 5 m/s 750 mmHg 77%
14:00 +4°C° 0.1 mm 4 m/s 750 mmHg 76%
15:00 +4°C° 0.1 mm 4 m/s 751 mmHg 74%
16:00 +3°C° 0 mm 4 m/s 751 mmHg 77%
17:00 +2°C° 0 mm 3 m/s 751 mmHg 80%
18:00 +1°C° 0 mm 3 m/s 752 mmHg 83%
19:00 +1°C° 0 mm 3 m/s 752 mmHg 84%
20:00 0°C° 0 mm 3 m/s 752 mmHg 84%
21:00 0°C° 0 mm 3 m/s 752 mmHg 85%
22:00 +1°C° 0 mm 2 m/s 752 mmHg 85%
23:00 +1°C° 0 mm 2 m/s 752 mmHg 86%
Arată mai mult

Formular de consimțământ

Meteoprog și furnizorii noștri de servicii pot stoca și accesa date personale, precum cookies, identificatori de dispozitiv sau alte tehnologii similare pe dispozitivul dumneavoastră și procesa astfel de date pentru a personaliza conținutul și reclamele, dar și pentru a oferi caracteristici de social media și pentru a analiza traficul.

  • Stocarea și/sau accesarea informațiilor pe dispozitivul dumneavoastră

    Cookies, identificatori de dispozitiv sau alte informații pot fi stocate sau accesate pe dispozitiv în scopurile indicate mai sus.

  • Reclame și conținut personalizat, evaluarea reclamelor și a conținutului, informații despre audiențe și dezvoltarea produselor

    Reclamele și conținutul pot fi personalizate pe baza unui profil. Pot fi adăugate date suplimentare pentru a personaliza mai bine reclamele și conținutul. Performanța reclamelor și conținutului poate fi măsurată. Pot fi obținute informații despre utilizatorii care au văzut reclamele și conținutul. Aceste date pot fi utilizate pentru a dezvolta sau îmbunătăți experiența utilizatorilor, sistemele și software-ul.

Dând clic pe ‘Sunt de acord’, permiteți utilizarea cookie-urilor menționate, a identificatorilor de dispozitiv, balizelor web sau altor tehnologii similare. Setările pot fi modificate din browser-ul dispozitivului dumneavoastră.

În anumite scopuri, interesele legitime pot prima asupra consimțământului. Puteți citi mai multe informații în acest sens în Politica privind Confidențialitatea Datelor și Cookie.